User: anonymous   Login
Location: Unspecified
(0.0000°N, 0.0000°E)
Time: 09:22:17
(UTC+00:00)
Language:

GOES 5 - Orbit

View from above orbital plane
View from above orbital plane
View from above satellite
View from above satellite

Ground track
Ground track

The orbit data is extracted from the following two-line orbital elements,

1 12472U 81049A   17085.16862745 -.00000287 +00000-0 +00000-0 0  9996
2 12472 014.4322 345.9644 0004491 262.3204 286.3931 01.00298451089173
Epoch (UTC): 26 March 2017 04:02:49
Eccentricity: 0.0004491
inclination: 14.4322°
perigee height: 35760 km
apogee height: 35797 km
right ascension of ascending node: 345.9644°
argument of perigee: 262.3204°
revolutions per day: 1.00298451
mean anomaly at epoch: 286.3931°
orbit number at epoch: 8917

The dashed part of the orbit path shows where the satellite is in the earth's shadow,  

DLR